Location: *
(28.3744°N, 81.5492°W)
Time: 03:15:12
(UTC+00:00)

SL-16 R/B - Pass Details

Date: 15 June 2025
Orbit: 841 x 846 km, 71.0° (Epoch: 11 July)

Event Time Altitude Azimuth Distance (km) Brightness Sun altitude
Rises 04:23:42 0° 333° (NNW) 3,398 6.3 -36.1°
Reaches altitude 10° 04:26:12 10° 328° (NNW) 2,462 5.3 -36.3°
Enters shadow 04:29:12 30° 311° (NW) 1,469 3.8 -36.5°
